Weather History for Corpus Christi NAS, TX

Change the Weather History Date:

Tuesday, October 9, 2012

  Actual Average Record
Temperature  
Mean Temperature 76 °F -  
Max Temperature 84 °F 81 °F 91 °F (1999)
Min Temperature 68 °F 67 °F 46 °F (2000)
Cooling Degree Days 11    
Growing Degree Days 26 (Base 50)    
Moisture  
Dew Point 70 °F    
Average Humidity 78    
Maximum Humidity 88    
Minimum Humidity 63    
Precipitation  
Precipitation 0.00 in - - ()
Sea Level Pressure  
Sea Level Pressure 30.00 in    
Wind  
Wind Speed 10 mph (SE)    
Max Wind Speed 17 mph    
Max Gust Speed 22 mph    
Visibility 10 miles    
Events      
Averages and records for this station are not official NWS values.
T = Trace of Precipitation, MM = Missing Value Source: NWS Daily Summary

Daily Weather History Graph

Daily Weather History Graph

Search for Another Location

Airport:

Trip Planner

Search our weather history database for the weather conditions in past years. The results will help you decide how hot, cold, wet, or windy it might be!

Date:

Astronomy

Oct. 09, 2012 Rise Set
Actual Time 7:26 AM CDT 7:05 PM CDT
Civil Twilight 7:02 AM CDT 7:29 PM CDT
Nautical Twilight 6:35 AM CDT 7:56 PM CDT
Astronomical Twilight 6:08 AM CDT 8:23 PM CDT
Moon 1:34 AM CDT (10/9) 3:06 PM CDT (10/9)
Length of Visible Light 12h 26m
Length of Day
11h 39m
Last Quarter, 36% of the Moon is Illuminated
Oct 9
Last Quarter
Oct 15
New
Oct 21
First Quarter
Oct 29
Full
Nov 6
Last Quarter

Hourly Weather History & Observations

Time (CDT) Temp. Heat Index Dew Point Humidity Pressure Visibility Wind Dir Wind Speed Gust Speed Precip Events Conditions
12:56 AM 68.0 °F - 63.0 °F 84% 30.07 in 10.0 mi NNE 8.1 mph - N/A   Mostly Cloudy
1:56 AM 68.0 °F - 64.0 °F 87% 30.05 in 10.0 mi NE 9.2 mph - N/A   Overcast
2:56 AM 70.0 °F - 66.0 °F 87% 30.03 in 10.0 mi ENE 6.9 mph - N/A   Mostly Cloudy
3:56 AM 73.0 °F - 69.1 °F 87% 30.02 in 10.0 mi East 8.1 mph - N/A   Overcast
4:04 AM 73.4 °F - 69.8 °F 88% 30.01 in 10.0 mi East 8.1 mph - N/A   Overcast
4:11 AM 73.4 °F - 69.8 °F 88% 30.01 in 10.0 mi ESE 8.1 mph - N/A   Overcast
4:31 AM 73.4 °F - 69.8 °F 88% 30.01 in 10.0 mi ESE 10.4 mph - N/A   Overcast
4:56 AM 73.9 °F - 69.1 °F 85% 30.01 in 10.0 mi ESE 9.2 mph - N/A   Overcast
5:56 AM 75.0 °F - 68.0 °F 79% 30.01 in 10.0 mi SE 9.2 mph - N/A   Overcast
6:56 AM 73.9 °F - 69.1 °F 85% 30.01 in 10.0 mi SE 4.6 mph - N/A   Mostly Cloudy
7:56 AM 75.0 °F - 70.0 °F 84% 30.02 in 10.0 mi SSE 8.1 mph - N/A   Mostly Cloudy
8:56 AM 78.1 °F - 70.0 °F 76% 30.03 in 10.0 mi SSE 10.4 mph - N/A   Mostly Cloudy
9:56 AM 81.0 °F 84.1 °F 69.1 °F 67% 30.05 in 10.0 mi SSE 16.1 mph - N/A   Scattered Clouds
10:56 AM 82.9 °F 86.5 °F 69.1 °F 63% 30.05 in 10.0 mi SE 17.3 mph - N/A   Scattered Clouds
11:56 AM 81.0 °F 84.4 °F 70.0 °F 69% 30.03 in 10.0 mi SE 15.0 mph 21.9 mph N/A   Scattered Clouds
12:56 PM 82.9 °F 87.0 °F 70.0 °F 65% 30.01 in 10.0 mi SSE 13.8 mph - N/A   Mostly Cloudy
1:56 PM 84.0 °F 88.4 °F 70.0 °F 63% 29.99 in 10.0 mi SSE 15.0 mph - N/A   Mostly Cloudy
2:56 PM 84.9 °F 90.1 °F 71.1 °F 63% 29.96 in 10.0 mi SE 13.8 mph - N/A   Scattered Clouds
3:56 PM 82.9 °F 87.0 °F 70.0 °F 65% 29.95 in 10.0 mi SSE 17.3 mph - N/A   Scattered Clouds
4:56 PM 82.9 °F 87.0 °F 70.0 °F 65% 29.94 in 10.0 mi SE 17.3 mph 21.9 mph N/A   Scattered Clouds
5:56 PM 81.0 °F 84.9 °F 71.1 °F 72% 29.94 in 10.0 mi SE 15.0 mph - N/A   Scattered Clouds
6:56 PM 79.0 °F - 71.1 °F 77% 29.94 in 10.0 mi SE 15.0 mph - N/A   Scattered Clouds
7:56 PM 78.1 °F - 73.0 °F 84% 29.95 in 10.0 mi SE 15.0 mph - N/A   Partly Cloudy
8:56 PM 78.1 °F - 73.0 °F 84% 29.96 in 10.0 mi SE 12.7 mph - N/A   Partly Cloudy
9:56 PM 78.1 °F - 73.0 °F 84% 29.98 in 10.0 mi SE 12.7 mph - N/A   Partly Cloudy
10:56 PM 78.1 °F - 73.0 °F 84% 29.99 in 10.0 mi SSE 12.7 mph - N/A   Clear
11:56 PM 78.1 °F - 73.9 °F 87% 29.98 in 10.0 mi SSE 11.5 mph - N/A   Partly Cloudy